Theta_e
341 341 340 341 341 341 341 342 342 343 342 342 341 339 337 335 335 333 331 332 335 334 333 333 336 338 337 338 340 340 339 339 339 338 334 331 329 328 327 327 326 326 327 327 327 327 327 325 323 323 323 324 325 324 322 321 319 316 315 313 313 312 311
341 341 341 341 341 342 341 341 342 342 342 341 339 337 336 335 335 332 329 331 334 334 333 333 335 339 340 339 339 339 338 338 336 335 334 332 331 329 328 327 326 326 327 327 326 324 324 325 323 322 321 322 321 320 318 317 315 314 314 313 313 312 311
341 341 341 341 342 341 341 341 341 341 341 340 338 336 336 335 335 333 329 330 334 334 334 335 337 340 341 339 339 338 337 336 333 331 331 332 331 330 329 327 326 326 326 325 326 324 322 322 322 321 321 321 320 318 316 315 314 314 314 313 313 312 311
342 341 341 341 341 341 340 340 339 340 340 339 337 337 337 336 336 334 331 332 335 335 336 337 339 340 340 338 338 339 337 336 335 331 329 331 331 329 329 327 326 326 325 325 325 325 323 322 321 321 320 320 319 318 316 315 314 314 314 313 313 312 312
342 342 341 341 341 340 340 339 339 338 338 338 338 338 337 336 336 335 333 333 335 337 337 339 339 339 339 338 338 339 337 336 335 331 329 330 331 330 328 327 326 326 325 325 325 325 324 322 321 320 319 318 317 317 316 316 315 314 314 313 313 313 312
342 341 341 341 341 341 341 340 339 339 339 339 339 338 337 336 336 336 334 333 334 336 338 339 340 339 339 338 338 338 336 334 333 331 330 330 330 329 328 326 325 325 325 325 324 324 324 322 321 319 317 316 316 316 316 316 315 314 314 313 313 313 313
341 341 341 341 341 341 341 341 340 340 340 340 340 339 338 336 336 336 335 334 333 335 338 340 340 340 338 336 337 337 335 332 331 331 330 330 329 328 327 326 325 324 324 323 323 323 323 322 320 319 317 315 315 316 315 315 315 315 314 313 312 312 312
341 341 341 341 341 341 341 341 341 341 340 340 340 340 339 338 336 336 335 335 334 335 338 339 339 339 338 336 335 335 333 331 330 330 330 329 328 327 326 325 324 323 323 322 322 322 321 321 321 320 318 316 315 315 315 314 314 314 314 313 312 312 312
340 341 341 340 341 341 341 341 341 340 340 340 340 340 340 339 337 337 336 336 335 335 337 338 338 338 337 335 334 334 332 330 330 330 329 328 327 326 325 324 323 323 322 322 321 320 320 320 321 321 319 317 316 316 315 315 314 314 314 314 313 312 312
340 340 341 340 341 341 340 341 340 340 340 340 340 340 340 340 339 338 337 337 336 335 336 337 337 337 337 335 334 334 332 330 330 330 329 328 327 325 324 323 323 322 321 321 320 319 319 320 320 320 320 318 317 317 316 316 315 313 314 314 313 313 312
340 340 340 340 341 341 340 340 340 340 340 340 340 340 340 339 339 338 337 337 336 336 337 336 334 334 335 334 332 333 333 330 329 328 328 327 326 324 324 322 322 321 321 320 318 318 318 318 319 320 320 318 317 317 316 316 316 313 313 314 313 312 311
340 340 340 340 340 340 340 340 340 340 340 340 340 340 340 339 338 337 335 334 333 335 336 335 333 332 333 333 332 331 331 329 329 327 326 326 325 324 323 322 321 320 319 318 317 317 317 317 317 318 319 318 317 317 315 315 317 314 313 314 312 310 310
340 340 340 340 340 340 340 340 340 340 340 340 338 338 339 339 337 335 334 333 332 334 335 334 333 333 332 332 330 329 328 327 327 327 325 324 323 323 322 321 320 319 318 317 317 317 317 317 317 316 317 317 317 317 315 315 316 314 312 313 311 309 309
340 340 340 340 340 340 340 340 340 340 340 339 337 338 338 337 336 335 334 333 332 333 334 334 333 332 332 330 328 328 327 326 326 325 324 323 322 322 321 320 319 318 317 317 317 316 316 316 316 315 315 316 315 316 316 315 315 313 311 311 310 309 309
340 340 340 340 340 340 340 340 340 340 340 339 339 338 337 336 336 335 333 333 333 333 333 334 334 332 332 330 328 328 328 326 326 325 324 323 322 321 320 319 317 317 316 317 316 316 316 315 315 315 314 313 313 315 316 315 314 311 311 310 309 309 309
340 340 340 340 340 340 340 340 340 340 339 339 339 338 337 337 336 334 333 334 334 333 333 334 333 333 331 330 328 328 328 326 326 325 323 322 321 320 319 318 317 317 316 316 316 315 316 315 315 314 313 312 312 313 315 315 314 312 309 309 309 309 309
340 340 339 340 340 340 340 340 340 340 339 338 338 337 336 336 335 334 333 334 334 334 334 333 332 332 331 329 328 327 327 326 325 324 323 322 321 320 319 318 318 318 317 316 316 316 316 315 315 314 313 312 312 313 314 314 314 313 310 308 308 308 308
340 339 340 340 340 340 340 340 340 340 339 339 338 336 336 336 335 334 333 334 334 334 334 333 332 331 330 328 327 326 326 325 323 323 323 322 321 320 319 318 319 319 318 317 317 317 316 315 314 313 311 311 312 313 313 312 313 313 311 309 308 307 307
340 339 340 340 340 340 340 340 340 339 339 338 336 336 336 335 334 334 333 334 334 333 333 333 331 330 329 327 325 326 326 324 322 322 322 321 321 320 319 319 319 319 319 318 317 316 316 315 313 312 310 310 312 313 313 312 312 312 311 310 308 307 306
340 340 340 340 340 340 340 340 339 339 339 337 335 335 335 334 333 333 334 334 334 332 331 330 329 330 329 326 325 325 324 322 322 322 322 321 320 320 320 319 319 318 318 318 317 316 315 314 313 312 310 311 313 313 312 313 312 311 311 309 308 307 305
340 340 340 340 340 340 339 339 338 338 339 336 334 335 335 334 333 333 333 333 333 332 329 327 327 328 327 325 325 324 322 321 322 322 321 321 320 320 319 319 318 318 317 316 316 315 315 314 313 312 311 312 313 312 312 312 312 311 310 309 307 306 305
339 339 340 339 339 339 338 338 337 338 338 336 334 334 333 333 332 332 332 332 332 331 328 326 325 325 325 324 324 322 322 322 322 321 321 321 320 319 319 318 318 317 316 315 314 314 314 313 313 313 312 312 312 312 312 312 311 310 309 308 307 306 305
339 339 339 339 338 339 338 338 337 337 338 336 333 332 332 332 332 332 332 331 330 329 328 326 325 324 324 324 322 321 322 322 322 321 321 320 320 319 319 318 317 316 315 314 314 313 313 312 312 313 313 313 313 313 312 312 311 310 309 308 307 306 305
339 339 339 338 338 338 338 337 336 336 337 335 332 331 332 331 331 332 331 331 330 329 327 327 326 325 325 324 322 321 322 322 321 321 321 320 320 319 318 317 316 315 314 314 313 313 312 312 312 312 312 313 313 313 313 312 311 310 309 309 307 306 306
339 339 339 338 338 337 337 337 336 335 335 334 332 332 332 332 332 332 331 330 330 328 327 326 325 325 325 324 322 321 322 322 321 320 320 320 319 318 316 315 315 313 313 312 311 312 312 312 312 311 311 312 313 312 312 312 312 310 309 309 307 306 306
338 339 339 338 338 337 337 336 335 335 335 333 333 333 332 332 332 331 331 330 329 328 326 325 325 325 324 324 322 321 321 321 321 320 320 319 318 317 315 315 314 310 306 304 305 309 311 311 311 311 310 311 312 311 311 311 311 310 310 309 308 307 305
338 338 338 338 338 337 336 335 335 335 334 332 333 332 332 332 331 331 330 330 329 328 326 324 324 324 323 323 322 321 321 321 320 320 319 318 317 316 315 313 310 304 299 298 302 307 310 311 311 310 310 310 311 310 310 309 309 309 308 307 306 305 302
338 337 336 337 336 335 335 335 334 334 333 333 333 332 331 331 331 330 330 329 329 327 325 324 323 323 323 322 322 321 320 319 319 318 317 316 315 315 313 309 304 299 298 299 302 306 308 309 309 309 309 309 309 309 309 308 307 307 305 302 300 300 300
337 336 336 336 335 334 334 335 334 334 333 332 332 332 332 331 331 330 329 329 328 327 325 324 323 323 323 322 322 321 319 318 318 317 315 315 313 312 310 306 302 300 299 298 301 304 306 307 308 308 309 308 308 308 307 305 303 302 300 298 297 297 298
336 336 335 335 334 334 334 334 334 333 332 332 332 332 331 331 330 330 329 329 328 327 326 324 323 323 323 322 322 320 318 317 316 315 314 313 311 310 308 305 304 304 302 299 300 302 304 306 307 308 308 307 306 305 304 303 302 302 301 300 298 297 296
335 334 334 334 334 335 334 333 333 333 332 332 331 331 330 330 330 329 329 328 328 328 327 325 323 323 322 322 321 319 318 316 314 313 312 311 310 309 308 306 306 307 305 304 304 304 303 303 304 306 306 305 304 303 303 303 303 303 303 302 301 300 299
334 334 333 334 334 334 333 332 332 332 331 331 330 331 330 329 328 328 328 328 327 327 327 326 324 323 322 322 321 319 318 316 314 313 312 310 308 308 307 306 306 308 308 307 307 307 305 303 302 303 304 304 302 302 303 304 304 304 304 304 304 303 303
333 333 333 334 334 333 332 332 332 331 331 330 330 330 329 328 327 327 326 327 326 326 326 326 325 324 323 322 320 319 317 316 314 313 311 310 309 308 307 307 307 308 308 308 308 309 308 306 303 302 303 303 302 302 303 304 304 304 305 305 305 305 305
333 333 334 333 333 332 332 332 331 330 330 330 329 329 328 327 326 325 325 326 326 325 326 325 324 323 322 321 320 318 317 316 315 314 312 311 310 309 309 308 308 308 308 308 308 309 308 307 306 304 303 303 303 304 305 305 305 306 306 306 306 306 306
334 334 333 333 332 332 332 331 330 329 329 330 329 328 328 327 326 325 326 326 325 325 325 325 324 323 322 321 319 318 318 317 316 315 313 312 311 311 312 311 309 308 309 308 308 308 308 307 307 306 305 305 305 305 305 306 306 306 306 305 305 305 306
334 333 333 332 332 331 330 330 329 329 329 329 328 327 327 327 326 325 325 324 323 324 324 324 323 323 322 321 320 318 318 317 316 315 315 314 313 312 313 312 310 308 309 309 308 307 306 306 306 306 307 307 306 306 305 306 306 305 304 304 304 303 303
333 332 332 331 330 329 329 329 329 329 329 329 328 327 325 325 325 324 323 323 322 321 322 322 322 322 322 321 320 318 317 316 315 315 315 315 315 314 313 312 310 309 309 309 307 304 304 305 305 306 306 307 307 306 305 305 305 304 304 304 303 302 302
Wind_Speed
27 25 24 25 25 26 26 26 25 24 24 23 22 22 22 21 20 19 19 21 23 22 20 18 17 16 17 19 19 20 20 19 18 16 14 14 13 11 9 8 6 6 9 9 8 7 4 2 4 8 10 12 15 18 18 16 14 13 12 12 12 12 12
28 26 24 24 24 25 25 25 24 24 24 23 23 23 22 21 20 19 19 21 22 22 20 19 17 17 19 20 19 19 18 17 16 15 14 15 14 13 11 10 8 8 8 7 9 8 5 4 2 3 8 11 13 15 16 15 14 13 13 12 12 12 12
26 24 23 23 25 25 25 24 24 24 24 24 24 23 22 21 21 20 20 21 22 21 20 19 17 18 19 18 18 17 16 14 13 14 14 13 14 14 13 11 11 10 7 5 7 7 6 5 4 5 8 9 9 10 12 15 14 13 12 12 11 11 11
26 24 23 23 24 24 24 24 24 24 24 23 23 23 22 22 22 22 21 22 22 21 20 18 18 18 18 17 18 17 18 17 14 15 16 13 13 14 13 13 13 11 9 7 9 10 7 5 6 7 8 9 10 10 11 13 14 13 12 11 10 10 10
28 26 25 25 25 24 24 23 23 23 23 23 23 22 22 22 24 24 23 24 23 22 21 19 18 19 19 19 19 18 19 17 13 15 17 13 13 15 14 13 12 12 11 9 11 13 11 10 13 9 8 11 9 7 12 13 12 12 11 10 9 9 8
29 28 27 26 25 25 25 24 24 23 23 23 23 23 23 23 24 25 25 26 25 24 22 20 19 19 19 19 19 18 17 15 13 14 14 12 12 14 13 13 11 11 11 9 10 13 12 14 18 12 9 9 7 8 12 11 11 11 10 10 9 8 8
30 29 27 26 25 25 25 25 25 24 25 24 25 25 24 23 25 26 27 27 26 25 23 21 21 22 19 18 19 19 16 14 15 13 12 12 12 12 12 12 11 10 10 9 10 12 11 14 20 18 12 7 7 10 8 8 10 9 8 9 8 7 7
31 30 27 26 25 25 25 25 25 25 25 25 25 25 25 25 26 27 28 28 27 25 23 22 23 23 20 17 20 19 16 16 16 13 13 13 12 12 12 11 10 10 9 9 9 9 10 14 19 25 22 11 6 5 4 6 8 7 8 11 8 7 7
30 28 27 25 24 25 25 25 25 24 24 24 24 25 26 26 27 27 27 28 27 25 24 25 24 23 19 18 21 20 17 17 17 15 15 13 12 12 11 11 11 10 10 9 9 8 9 12 18 25 27 20 11 4 2 5 4 4 10 13 8 7 7
29 28 26 25 25 25 25 25 24 23 23 23 23 24 25 25 27 27 27 27 27 26 25 25 23 21 18 18 22 22 19 19 19 17 16 13 12 12 11 11 11 11 10 9 9 10 11 12 16 23 26 24 19 10 3 3 3 4 10 12 9 7 7
28 27 27 26 25 25 25 24 24 23 22 21 21 22 23 25 27 27 26 26 23 22 24 22 18 18 17 18 21 22 20 21 21 18 16 14 13 12 12 12 11 11 11 10 10 12 12 12 15 22 24 23 21 15 9 5 3 6 11 12 9 7 8
28 27 26 25 25 25 25 25 24 23 21 20 20 21 24 27 27 25 23 19 13 13 19 19 16 16 17 20 23 23 23 24 22 19 16 15 13 13 13 13 13 12 11 12 12 12 12 11 13 18 22 20 17 15 14 10 3 6 13 12 9 8 9
28 27 26 25 25 25 25 25 24 22 21 20 20 22 27 27 25 23 20 16 11 12 16 17 16 17 19 23 25 25 25 23 21 19 16 14 13 13 13 13 13 13 13 14 13 13 12 11 11 13 16 17 15 13 14 13 5 5 12 12 10 10 10
28 26 26 25 25 24 25 25 23 21 20 19 19 23 26 24 23 22 19 17 14 15 16 17 18 19 20 24 27 27 25 21 18 16 15 14 14 13 13 14 14 15 15 15 14 13 13 12 10 10 10 11 13 13 13 14 10 8 10 12 12 12 10
27 26 25 24 23 23 24 23 22 21 20 20 22 25 23 21 21 20 16 16 15 15 16 18 18 19 22 26 27 27 26 23 20 17 16 15 14 14 14 15 16 16 16 15 14 13 13 11 9 8 8 7 10 13 14 15 15 12 11 12 13 12 9
26 25 24 24 22 22 23 22 21 20 18 20 24 24 21 20 20 17 15 15 15 15 16 18 19 20 23 26 28 28 26 25 23 20 19 17 16 16 16 16 17 16 16 15 14 12 11 11 8 6 7 7 8 12 14 15 15 15 15 14 12 11 9
25 25 23 23 21 21 21 20 20 18 17 20 23 21 18 18 17 16 16 16 16 16 17 19 20 22 24 27 29 28 26 24 22 21 19 18 17 17 17 18 17 16 16 15 14 12 11 10 9 7 7 7 8 10 12 14 16 17 18 16 12 11 10
24 24 22 21 21 20 20 20 19 17 18 21 21 18 17 18 16 15 15 17 18 18 18 20 21 23 26 28 29 27 25 22 21 20 18 17 17 17 17 18 17 16 17 16 13 13 13 12 9 7 7 8 10 10 11 13 15 16 19 18 14 12 10
24 23 22 21 20 19 19 19 18 17 20 20 17 16 17 16 14 14 15 17 18 18 18 20 22 24 27 28 28 26 23 20 19 18 17 16 16 16 16 16 15 15 15 14 13 13 13 13 10 8 7 9 11 11 11 12 13 14 17 18 15 13 10
23 22 21 20 19 19 18 18 17 18 20 17 13 14 16 13 12 13 14 15 17 16 17 20 22 24 25 26 26 25 22 18 18 17 16 15 15 15 15 14 13 12 11 10 11 13 13 13 11 8 9 11 12 12 11 12 13 15 17 17 14 12 10
22 22 21 20 19 18 17 17 16 17 18 15 12 13 13 11 11 13 13 13 14 14 15 18 21 24 24 24 23 22 19 19 20 18 16 15 16 16 15 13 11 9 8 8 10 11 12 11 11 10 11 12 12 11 11 11 13 16 18 16 14 12 10
21 21 20 20 19 18 17 16 15 16 16 13 10 10 9 8 9 11 11 11 11 11 13 16 19 23 24 22 19 18 17 18 19 18 17 16 16 15 13 11 9 8 9 9 10 10 9 9 10 12 13 14 13 12 11 12 14 17 17 15 13 12 10
20 20 20 19 19 17 16 14 13 14 14 11 7 6 6 5 6 7 8 8 9 10 13 15 17 21 22 19 17 18 18 19 18 17 17 17 16 15 13 12 11 12 12 11 10 10 9 9 10 11 12 13 14 14 13 13 14 16 16 15 14 12 10
20 20 20 19 18 17 15 14 14 13 12 10 7 6 6 5 4 5 6 8 9 10 12 15 16 17 16 14 15 18 19 18 18 17 17 17 16 16 15 14 14 13 12 12 11 11 10 10 10 10 11 12 14 14 13 14 15 16 16 15 14 12 10
20 19 19 19 18 17 16 15 15 14 11 10 8 6 5 5 5 6 7 7 8 9 11 13 14 14 13 12 14 17 18 17 18 18 16 15 15 15 14 13 12 12 11 12 11 11 12 12 11 10 10 11 13 13 12 13 14 15 15 15 14 12 10
19 19 20 20 18 17 17 17 17 15 13 11 8 6 6 6 6 6 7 7 8 9 9 10 12 13 13 13 14 15 17 16 16 17 16 14 14 13 12 11 10 11 11 10 10 11 11 12 12 11 10 11 12 11 11 11 10 10 12 13 12 11 9
20 21 21 21 19 18 18 19 18 16 15 13 10 8 8 8 7 7 8 8 8 9 10 11 13 14 14 14 13 14 15 16 16 16 15 14 13 11 9 9 9 9 8 7 8 9 10 11 11 10 10 11 11 10 10 10 9 8 8 9 8 9 8
21 20 20 20 20 19 20 20 18 16 15 13 11 10 9 8 8 9 9 7 7 9 11 12 14 14 13 13 14 13 14 16 16 16 15 14 12 10 7 6 6 5 5 5 6 8 9 10 10 10 11 11 11 10 9 9 8 7 6 6 5 6 8
21 20 20 20 21 21 21 20 18 16 15 14 13 12 10 9 9 10 10 8 8 9 12 14 16 15 13 13 14 14 15 16 17 17 16 14 12 9 7 6 6 5 5 6 7 7 8 9 10 11 12 12 11 10 10 9 9 8 8 8 9 8 9
22 20 20 21 22 23 22 20 18 16 16 17 15 12 11 10 10 11 12 11 10 10 12 16 18 17 14 14 15 16 16 17 18 17 17 15 13 10 9 7 7 6 7 8 8 8 8 9 10 11 12 12 12 11 13 14 14 13 13 12 12 11 11
22 21 21 23 24 23 21 20 19 18 18 17 14 11 10 10 11 12 12 11 10 11 13 17 20 18 15 15 16 17 18 18 19 19 18 16 14 12 11 9 7 6 7 8 9 9 7 7 9 11 12 12 12 14 16 16 14 13 12 12 11 11 10
21 22 23 24 23 21 20 20 19 19 17 14 12 12 12 13 14 13 9 7 8 10 12 16 19 19 17 16 17 18 20 21 22 21 20 19 17 15 13 11 9 7 7 8 8 8 7 5 5 8 11 12 13 15 15 14 11 10 9 8 7 7 6
21 23 24 23 21 19 19 20 20 18 14 11 12 14 15 14 12 10 7 6 8 11 12 15 18 19 19 19 19 20 22 23 24 24 23 22 20 18 16 13 11 9 8 8 8 7 7 6 4 5 8 11 13 14 13 11 8 6 4 4 4 4 4
22 23 23 21 19 17 18 19 17 15 13 13 15 15 15 12 10 8 7 7 10 12 12 14 18 20 20 20 20 21 23 24 25 24 24 23 21 20 18 15 13 12 10 9 8 7 7 7 6 6 7 9 10 11 9 7 5 4 4 4 6 6 6
22 21 21 20 18 18 18 17 15 14 16 17 17 15 14 12 11 10 9 9 10 11 12 13 16 19 22 22 22 24 24 24 24 24 24 24 22 20 18 16 14 13 12 10 9 7 6 6 7 8 8 8 8 7 7 6 5 4 4 4 4 4 3
22 21 21 19 19 19 19 16 15 16 19 18 16 15 15 15 14 13 12 11 11 11 12 13 15 18 21 23 24 25 25 24 24 24 23 22 21 20 18 16 15 14 13 11 8 5 4 5 7 9 11 12 10 8 8 8 6 5 4 2 3 3 3
21 21 20 18 19 19 18 17 17 18 19 18 17 16 16 16 16 15 14 13 13 13 13 14 15 17 20 23 25 26 25 24 23 23 21 20 19 19 18 17 16 14 13 11 8 5 4 4 5 7 9 12 12 10 8 7 6 5 4 4 5 4 3
Wind_Direction
210 214 217 219 223 225 225 226 226 229 233 236 237 238 237 238 241 246 242 231 231 238 240 241 247 247 239 233 233 237 238 230 226 222 205 193 185 179 178 182 186 173 170 177 173 156 133 89 85 94 112 128 136 137 136 133 129 123 113 102 91 82 78
211 214 217 219 223 226 227 226 226 227 231 234 236 238 238 238 240 245 243 233 231 237 237 238 244 245 238 236 237 237 237 233 233 233 217 203 201 196 187 182 174 164 164 173 172 156 124 129 154 119 119 121 123 130 134 132 125 119 112 102 95 88 82
209 211 213 216 220 223 224 224 224 224 227 231 235 238 239 238 237 242 242 235 233 236 236 237 241 242 240 239 236 232 236 241 246 249 237 218 212 208 200 191 176 165 159 161 173 163 126 112 129 151 150 138 128 129 136 136 128 121 115 105 99 95 89
207 206 206 209 213 216 218 219 220 221 224 228 234 239 240 238 236 238 240 238 237 238 238 239 241 243 244 239 234 233 237 238 239 244 240 224 211 207 205 203 196 189 186 193 198 187 163 128 129 147 157 146 135 139 148 146 135 128 120 113 108 102 97
208 206 205 206 207 210 212 214 216 218 221 226 232 238 240 239 237 236 238 238 239 240 240 241 243 248 249 242 238 237 238 237 229 231 232 221 209 206 205 208 210 209 207 212 213 204 195 168 150 146 151 144 129 139 157 155 144 137 128 122 121 118 112
211 211 209 207 207 209 211 212 214 216 220 225 231 237 240 240 239 238 239 239 240 241 241 241 244 246 244 242 239 234 232 230 218 219 225 219 212 211 210 209 208 210 212 218 215 208 202 172 152 143 151 150 133 144 161 163 155 150 143 138 137 136 133
213 214 213 210 208 210 212 214 217 219 223 228 233 239 242 242 242 242 243 242 242 241 239 238 239 241 240 242 240 232 223 217 209 210 218 216 210 210 212 211 206 206 207 205 203 202 200 180 161 149 143 131 124 143 160 172 166 162 159 158 157 152 150
215 215 214 214 212 213 215 217 221 224 228 234 239 242 245 244 245 245 245 244 242 239 236 235 237 237 235 233 234 230 220 212 208 207 212 213 211 208 207 207 201 196 192 186 190 199 203 197 181 165 153 137 126 150 163 171 179 192 177 168 170 169 160
213 213 213 214 216 218 221 223 225 229 233 239 242 245 246 247 248 247 246 245 241 236 234 235 238 238 232 222 221 222 217 211 208 208 209 209 208 205 200 199 195 188 183 182 184 194 198 200 195 181 169 159 152 155 175 175 193 209 179 172 176 180 175
211 212 213 215 219 222 226 228 231 234 238 242 245 247 249 251 254 252 249 246 240 235 234 233 234 237 234 221 214 216 216 211 208 206 204 203 201 199 195 192 190 184 179 179 184 194 199 198 196 191 185 179 169 156 148 186 199 187 180 181 179 184 195
212 214 217 220 222 224 226 228 232 235 239 244 247 248 250 252 254 254 251 247 238 234 238 233 222 219 222 220 216 216 214 207 204 201 198 197 195 193 191 185 184 183 178 179 182 188 193 192 192 193 193 189 181 172 162 159 190 190 183 184 186 191 198
214 216 219 221 223 225 228 231 234 235 241 246 245 245 250 250 250 252 253 250 236 230 239 235 218 207 206 212 215 213 208 203 201 196 190 192 192 189 188 183 182 182 177 176 176 178 180 175 178 189 193 193 193 190 176 159 156 192 184 185 191 190 190
214 217 220 221 224 227 231 234 236 238 244 243 237 241 250 250 249 253 258 256 237 229 239 237 227 216 204 202 204 201 197 196 196 191 184 185 187 187 189 186 183 182 177 175 173 172 176 171 168 177 186 194 200 202 187 170 146 159 177 185 186 179 178
214 218 220 222 226 229 233 236 237 242 245 241 240 247 251 252 252 254 259 260 244 228 233 234 228 221 209 200 197 195 191 189 191 191 183 182 183 186 190 187 182 181 178 178 174 170 169 169 170 171 175 187 194 196 193 179 154 137 160 175 176 173 171
214 217 219 221 225 229 234 236 238 243 243 241 250 255 253 253 255 253 255 261 250 227 225 229 225 220 211 201 196 195 193 189 190 193 188 184 183 184 188 186 181 179 179 180 175 169 168 168 173 181 181 186 187 187 189 181 163 146 151 165 172 175 178
213 215 217 220 224 230 235 237 240 243 240 243 251 252 251 254 256 256 256 255 248 234 228 228 223 216 209 202 197 195 193 190 190 190 187 185 184 183 186 186 182 179 180 180 174 169 171 173 174 179 179 181 184 183 188 189 177 158 151 158 171 177 178
211 213 216 219 224 231 236 237 241 241 237 247 254 251 250 254 257 258 255 248 244 239 234 227 220 214 208 202 198 193 191 191 191 189 186 184 183 185 188 189 187 185 186 185 179 176 178 179 178 178 178 178 180 180 184 189 187 174 161 157 165 175 176
210 212 215 220 225 231 235 238 241 240 240 248 253 252 253 257 261 258 251 248 244 237 234 230 221 213 206 198 193 191 190 191 190 187 184 183 184 187 191 193 191 191 194 192 186 185 187 185 181 182 185 180 176 173 173 178 183 182 173 165 165 171 175
209 212 216 220 225 230 234 238 240 241 246 246 244 250 255 256 259 258 254 254 246 233 232 231 221 212 205 195 189 188 188 189 189 187 182 182 186 189 193 195 194 193 197 198 195 194 193 189 185 184 184 178 171 166 165 170 178 183 179 172 169 170 173
210 213 217 221 226 229 232 236 237 242 249 245 235 246 253 251 253 254 253 253 246 235 228 218 211 209 204 194 187 184 183 184 188 187 182 182 187 192 194 194 194 194 198 204 207 205 200 193 188 185 180 175 173 169 164 167 175 181 178 172 169 170 172
210 212 216 219 223 225 229 233 235 243 251 246 234 245 254 254 254 248 243 244 245 241 224 204 199 200 196 188 185 183 179 181 185 182 179 184 188 190 191 191 193 200 207 215 219 216 210 204 196 188 181 179 182 183 178 173 174 178 177 172 169 173 174
208 210 213 216 218 220 225 229 230 240 251 248 237 246 256 257 250 241 236 238 244 241 222 203 194 193 190 186 185 185 180 180 186 183 178 182 186 187 190 195 202 212 215 215 218 218 218 218 211 201 195 193 195 197 193 184 178 177 176 174 173 175 176
207 209 212 213 215 216 217 221 221 230 245 246 230 223 228 229 237 242 242 242 244 237 222 210 198 191 193 193 188 184 180 181 187 187 181 181 186 190 196 202 206 210 212 213 216 216 216 219 220 218 215 212 209 206 198 189 185 183 182 181 181 181 180
207 209 212 212 213 212 210 213 210 214 231 233 203 189 197 204 224 245 245 243 245 238 224 216 205 196 199 203 192 183 181 183 186 188 188 188 188 191 194 198 204 209 215 220 221 218 215 215 217 220 222 220 217 215 210 201 193 191 191 189 188 190 194
207 210 211 211 210 207 206 204 197 196 209 209 191 185 196 204 217 231 235 238 242 239 227 216 209 206 206 203 195 189 187 187 188 188 189 189 189 190 191 197 209 218 227 232 229 222 216 213 213 216 217 216 214 217 221 219 209 204 203 199 194 197 205
209 211 211 209 207 204 201 196 189 189 194 191 185 187 194 203 215 223 226 232 236 235 225 208 202 203 203 199 198 196 192 189 190 189 187 188 189 191 195 207 223 232 237 237 229 222 216 211 208 210 212 211 208 208 212 218 220 218 216 211 206 209 214
207 208 205 203 204 202 196 191 186 185 182 177 177 184 192 202 212 217 220 226 233 233 221 204 197 198 198 198 201 202 197 192 190 188 186 188 191 193 202 222 237 240 236 227 216 213 212 209 207 207 207 204 200 197 195 198 200 203 210 216 221 221 209
206 204 197 196 199 196 190 186 182 179 177 177 180 183 189 203 210 212 212 212 222 226 217 205 199 197 199 199 199 200 199 193 189 185 183 185 189 193 203 219 225 220 205 191 194 201 204 205 202 196 192 188 185 182 179 181 184 189 194 194 194 191 175
203 201 196 194 193 189 185 183 179 179 179 180 181 180 184 199 206 203 199 196 206 215 213 207 201 198 200 204 201 198 197 194 188 183 181 182 184 186 189 190 183 172 161 160 168 181 190 192 188 182 178 174 173 171 165 156 149 145 142 135 130 132 137
197 198 198 194 188 185 185 182 180 181 179 174 173 175 180 194 202 198 192 193 201 207 209 207 204 203 206 207 201 195 193 193 188 183 180 180 180 179 177 175 167 155 146 143 146 158 175 184 185 182 177 173 170 164 152 142 136 131 124 119 117 116 120
198 199 197 191 184 183 185 184 181 181 176 169 166 170 180 191 198 195 189 188 197 207 211 209 207 209 212 209 202 195 192 191 187 184 181 180 180 179 174 171 167 157 151 144 137 140 153 173 187 186 180 173 167 158 150 145 141 137 130 126 124 124 128
201 198 190 185 182 183 185 183 178 173 167 162 165 177 188 190 185 179 175 181 198 208 214 211 210 212 213 210 203 197 194 192 188 186 185 182 181 181 177 174 171 164 159 154 146 141 143 154 179 186 182 175 165 159 156 153 150 147 144 143 145 147 150
194 188 181 179 179 180 180 176 170 164 159 162 173 182 184 179 167 159 167 194 204 208 215 213 209 210 212 210 207 201 197 195 192 189 188 185 182 181 181 180 177 171 166 165 162 160 163 165 169 177 180 177 169 163 162 162 162 166 172 184 198 206 207
187 180 176 175 172 174 176 172 167 162 163 170 174 172 167 159 149 154 184 207 206 208 217 216 209 208 208 207 207 205 202 201 200 195 191 188 186 186 184 183 181 176 171 172 174 177 183 188 192 193 188 181 174 171 172 177 185 200 223 249 256 253 244
185 181 178 175 171 172 175 174 172 171 172 173 168 162 160 161 162 173 194 209 211 210 214 214 210 208 206 205 207 209 210 210 208 202 195 191 191 191 189 185 183 179 175 178 184 192 203 213 218 218 214 205 197 197 207 216 218 230 252 269 266 248 239
182 181 179 175 173 173 173 175 177 177 176 171 165 164 169 171 171 177 189 200 207 211 212 212 209 208 208 208 209 210 213 215 213 208 204 200 197 196 194 188 183 181 179 179 182 189 205 222 231 232 228 225 221 223 226 224 229 258 271 229 160 154 165
180 180 177 175 175 174 175 177 177 178 176 172 168 169 173 174 175 180 188 195 199 204 209 210 209 209 210 210 210 211 213 215 214 212 211 210 206 202 196 190 186 184 180 174 169 170 184 205 231 244 239 231 226 227 229 230 246 276 256 186 161 154 159